,,Stat5,,Stat1,,Stat2,,Stat3,,Stat4,,Wind1,,Wind1,
time,status,PA1M_AVG,status,PR1M_SUM,status,RH1M_AVG,status,SR1M_AVG,status,TA1M_AVG,status,W1dAve1m,status,W1sAve1m,
2002-11-02, 00:00:00,VALID,917.987,VALID,0,VALID,99.7065,VALID,0.0169808,VALID,19.2599,VALID,114,VALID,1.05099,
2002-11-02, 00:01:00,VALID,917.987,VALID,0,VALID,99.7103,VALID,0,VALID,19.2597,VALID,124,VALID,0.888775,
2002-11-02, 00:02:00,VALID,917.986,VALID,0,VALID,99.7052,VALID,0.0509425,VALID,19.2858,VALID,138,VALID,1.12522,
2002-11-02, 00:03:00,VALID,917.982,VALID,0,VALID,99.704,VALID,0.0169808,VALID,19.2922,VALID,140,VALID,2.00802,
2002-11-02, 00:04:00,VALID,917.954,VALID,0.2,VALID,99.6925,VALID,-0.0169808,VALID,19.2992,VALID,158,VALID,1.28056,
2002-11-02, 00:05:00,VALID,917.946,VALID,0,VALID,99.6887,VALID,-0.0339617,VALID,19.3124,VALID,126,VALID,1.49933,
2002-11-02, 00:06:00,VALID,917.906,VALID,0,VALID,99.6963,VALID,-0.0339617,VALID,19.3347,VALID,170,VALID,1.15345,
2002-11-02, 00:07:00,VALID,917.883,VALID,0,VALID,99.6913,VALID,-0.0339617,VALID,19.3516,VALID,148,VALID,1.13007,
2002-11-02, 00:08:00,VALID,917.852,VALID,0,VALID,99.6811,VALID,0,VALID,19.3514,VALID,149,VALID,0.997533,
2002-11-02, 00:09:00,VALID,917.836,VALID,0,VALID,99.6862,VALID,-0.0509425,VALID,19.3285,VALID,158,VALID,0.96317,
2002-11-02, 00:10:00,VALID,917.8,VALID,0,VALID,99.6913,VALID,-0.0339617,VALID,19.3419,VALID,205,VALID,0.324519,
2002-11-02, 00:11:00,VALID,917.775,VALID,0,VALID,99.676,VALID,-0.0679233,VALID,19.3449,VALID,215,VALID,0.216619,
2002-11-02, 00:12:00,VALID,917.768,VALID,0,VALID,99.6824,VALID,-0.0849042,VALID,19.3414,VALID,196,VALID,0.506076,
2002-11-02, 00:13:00,VALID,917.758,VALID,0,VALID,99.6811,VALID,-0.0509425,VALID,19.3422,VALID,172,VALID,0.877673,
2002-11-02, 00:14:00,VALID,917.716,VALID,0,VALID,99.6849,VALID,-0.0169808,VALID,19.3451,VALID,200,VALID,0.500401,
2002-11-02, 00:15:00,VALID,917.687,VALID,0,VALID,99.6785,VALID,-0.0339617,VALID,19.3419,VALID,232,VALID,0.375195,
2002-11-02, 00:16:00,VALID,917.663,VALID,0,VALID,99.6785,VALID,-0.0509425,VALID,19.3354,VALID,231,VALID,0.550223,
2002-11-02, 00:17:00,VALID,917.654,VALID,0,VALID,99.69,VALID,-0.0679233,VALID,19.326,VALID,273,VALID,0.539696,
2002-11-02, 00:18:00,VALID,917.639,VALID,0,VALID,99.6862,VALID,-0.0849042,VALID,19.3131,VALID,247,VALID,0.389246,
2002-11-02, 00:19:00,VALID,917.639,VALID,0,VALID,99.6862,VALID,-0.0509425,VALID,19.3124,VALID,243,VALID,0.292188,
2002-11-02, 00:20:00,VALID,917.641,VALID,0,VALID,99.6874,VALID,-0.0169808,VALID,19.3131,VALID,249,VALID,0.5625,
2002-11-02, 00:21:00,VALID,917.634,VALID,0,VALID,99.69,VALID,-0.0169808,VALID,19.296,VALID,248,VALID,0.270059,
2002-11-02, 00:22:00,VALID,917.643,VALID,0,VALID,99.6874,VALID,-0.0169808,VALID,19.3061,VALID,248,VALID,0.0180921,
2002-11-02, 00:23:00,VALID,917.66,VALID,0,VALID,99.6925,VALID,-0.0169808,VALID,19.3156,VALID,248,VALID,0,
2002-11-02, 00:24:00,VALID,917.687,VALID,0,VALID,99.6785,VALID,-0.0509425,VALID,19.3158,VALID,248,VALID,0.121194,
2002-11-02, 00:25:00,VALID,917.679,VALID,0,VALID,99.6849,VALID,-0.0679233,VALID,19.329,VALID,303,VALID,0.253078,
2002-11-02, 00:26:00,VALID,917.669,VALID,0,VALID,99.6811,VALID,-0.0169808,VALID,19.3837,VALID,10,VALID,0.509115,
2002-11-02, 00:27:00,VALID,917.667,VALID,0,VALID,99.6862,VALID,-0.0509425,VALID,19.4028,VALID,10,VALID,0.138775,
2002-11-02, 00:28:00,VALID,917.662,VALID,0,VALID,99.6735,VALID,-0.0509425,VALID,19.4229,VALID,10,VALID,0,
2002-11-02, 00:29:00,VALID,917.679,VALID,0,VALID,99.6824,VALID,-0.0849042,VALID,19.3869,VALID,10,VALID,0.0464844,
2002-11-02, 00:30:00,VALID,917.715,VALID,0,VALID,99.6798,VALID,-0.0849042,VALID,19.361,VALID,10,VALID,0.0421875,
2002-11-02, 00:31:00,VALID,917.732,VALID,0,VALID,99.6824,VALID,-0.0679233,VALID,19.3613,VALID,10,VALID,0.345017,
2002-11-02, 00:32:00,VALID,917.716,VALID,0,VALID,99.6862,VALID,-0.0849042,VALID,19.3578,VALID,12,VALID,0.393382,
2002-11-02, 00:33:00,VALID,917.684,VALID,0,VALID,99.6836,VALID,-0.0339617,VALID,19.3486,VALID,12,VALID,0.365625,
2002-11-02, 00:34:00,VALID,917.659,VALID,0,VALID,99.6824,VALID,-0.0339617,VALID,19.3409,VALID,12,VALID,0.21274,
2002-11-02, 00:35:00,VALID,917.624,VALID,0,VALID,99.69,VALID,0.0509425,VALID,19.3144,VALID,12,VALID,0.178632,
2002-11-02, 00:36:00,VALID,917.618,VALID,0,VALID,99.6951,VALID,0.0509425,VALID,19.295,VALID,12,VALID,0.0668174,
2002-11-02, 00:37:00,VALID,917.585,VALID,0,VALID,99.6913,VALID,0.0509425,VALID,19.2915,VALID,12,VALID,0.177232,
2002-11-02, 00:38:00,VALID,917.57,VALID,0,VALID,99.6963,VALID,0.0849042,VALID,19.2915,VALID,12,VALID,0.294271,
2002-11-02, 00:39:00,VALID,917.565,VALID,0,VALID,99.6913,VALID,0,VALID,19.2918,VALID,12,VALID,0.460464,
2002-11-02, 00:40:00,VALID,917.548,VALID,0,VALID,99.6849,VALID,0.0679233,VALID,19.3146,VALID,12,VALID,0.513889,
2002-11-02, 00:41:00,VALID,917.548,VALID,0,VALID,99.6951,VALID,0.101885,VALID,19.3241,VALID,12,VALID,0.421875,
2002-11-02, 00:42:00,VALID,917.551,VALID,0,VALID,99.6951,VALID,0.0679233,VALID,19.34,VALID,12,VALID,0.45613,
2002-11-02, 00:43:00,VALID,917.57,VALID,0,VALID,99.6913,VALID,0.0679233,VALID,19.3139,VALID,12,VALID,0.584961,
2002-11-02, 00:44:00,VALID,917.571,VALID,0,VALID,99.6938,VALID,0.0509425,VALID,19.3012,VALID,12,VALID,0.226563,
2002-11-02, 00:45:00,VALID,917.576,VALID,0,VALID,99.6913,VALID,0.0679233,VALID,19.2952,VALID,12,VALID,0.0899493,
2002-11-02, 00:46:00,VALID,917.58,VALID,0,VALID,99.6925,VALID,0.0509425,VALID,19.3211,VALID,12,VALID,0,
2002-11-02, 00:47:00,VALID,917.553,VALID,0,VALID,99.6874,VALID,0.0509425,VALID,19.3171,VALID,12,VALID,0,
2002-11-02, 00:48:00,VALID,917.539,VALID,0,VALID,99.6925,VALID,0.0509425,VALID,19.3081,VALID,12,VALID,0.0278446,
2002-11-02, 00:49:00,VALID,917.523,VALID,0,VALID,99.69,VALID,0.0169808,VALID,19.2858,VALID,12,VALID,0.227196,
2002-11-02, 00:50:00,VALID,917.511,VALID,0,VALID,99.6938,VALID,-0.0339617,VALID,19.2478,VALID,13,VALID,0.292558,
2002-11-02, 00:51:00,VALID,917.533,VALID,0,VALID,99.6913,VALID,0,VALID,19.2542,VALID,133,VALID,0.679018,
2002-11-02, 00:52:00,VALID,917.524,VALID,0,VALID,99.6836,VALID,-0.0339617,VALID,19.2478,VALID,156,VALID,1.03726,
2002-11-02, 00:53:00,VALID,917.511,VALID,0,VALID,99.6925,VALID,-0.0509425,VALID,19.2217,VALID,174,VALID,0.90554,
2002-11-02, 00:54:00,VALID,917.502,VALID,0,VALID,99.6887,VALID,-0.0169808,VALID,19.2256,VALID,173,VALID,0.795573,
2002-11-02, 00:55:00,VALID,917.491,VALID,0,VALID,99.6963,VALID,-0.0169808,VALID,19.2055,VALID,155,VALID,0.975123,
2002-11-02, 00:56:00,VALID,917.475,VALID,0,VALID,99.6951,VALID,-0.0679233,VALID,19.2025,VALID,168,VALID,0.619191,
2002-11-02, 00:57:00,VALID,917.472,VALID,0,VALID,99.6989,VALID,-0.0679233,VALID,19.2065,VALID,134,VALID,0.441797,
2002-11-02, 00:58:00,VALID,917.463,VALID,0,VALID,99.7052,VALID,-0.0509425,VALID,19.1963,VALID,159,VALID,0.978348,
2002-11-02, 00:59:00,VALID,917.456,VALID,0,VALID,99.7002,VALID,-0.0509425,VALID,19.167,VALID,154,VALID,0.908784,
2002-11-02, 01:00:00,VALID,917.482,VALID,0,VALID,99.7002,VALID,-0.0339617,VALID,19.1802,VALID,113,VALID,0.672794,
2002-11-02, 01:01:00,VALID,917.488,VALID,0,VALID,99.6963,VALID,-0.0849042,VALID,19.1712,VALID,126,VALID,0.532143,
2002-11-02, 01:02:00,VALID,917.489,VALID,0,VALID,99.7027,VALID,-0.0509425,VALID,19.1705,VALID,153,VALID,0.421875,
2002-11-02, 01:03:00,VALID,917.479,VALID,0,VALID,99.7078,VALID,-0.0679233,VALID,19.1672,VALID,152,VALID,0.452914,
2002-11-02, 01:04:00,VALID,917.458,VALID,0,VALID,99.704,VALID,-0.0339617,VALID,19.1675,VALID,153,VALID,0.843544,
2002-11-02, 01:05:00,VALID,917.433,VALID,0,VALID,99.6951,VALID,-0.0679233,VALID,19.1675,VALID,184,VALID,0.655357,
2002-11-02, 01:06:00,VALID,917.408,VALID,0,VALID,99.7002,VALID,-0.0849042,VALID,19.1677,VALID,166,VALID,0.823918,
2002-11-02, 01:07:00,VALID,917.4,VALID,0,VALID,99.6989,VALID,-0.0849042,VALID,19.158,VALID,150,VALID,0.723011,
2002-11-02, 01:08:00,VALID,917.394,VALID,0,VALID,99.6963,VALID,-0.0509425,VALID,19.1511,VALID,150,VALID,0.078125,
2002-11-02, 01:09:00,VALID,917.36,VALID,0,VALID,99.6951,VALID,-0.0849042,VALID,19.1513,VALID,145,VALID,0.457237,
2002-11-02, 01:10:00,VALID,917.355,VALID,0,VALID,99.6925,VALID,-0.0679233,VALID,19.1414,VALID,136,VALID,0.469151,
2002-11-02, 01:11:00,VALID,917.331,VALID,0,VALID,99.7065,VALID,-0.0849042,VALID,19.1352,VALID,80,VALID,0.647852,
2002-11-02, 01:12:00,VALID,917.325,VALID,0,VALID,99.7002,VALID,-0.0169808,VALID,19.132,VALID,85,VALID,0.171875,
2002-11-02, 01:13:00,VALID,917.299,VALID,0,VALID,99.7065,VALID,-0.0339617,VALID,19.1195,VALID,85,VALID,0.0595439,
2002-11-02, 01:14:00,VALID,917.248,VALID,0,VALID,99.7014,VALID,0,VALID,19.1188,VALID,102,VALID,0.232767,
2002-11-02, 01:15:00,VALID,917.229,VALID,0,VALID,99.7154,VALID,-0.0339617,VALID,19.1153,VALID,109,VALID,0.378125,
2002-11-02, 01:16:00,VALID,917.218,VALID,0,VALID,99.6989,VALID,-0.0339617,VALID,19.1282,VALID,126,VALID,0.551282,
2002-11-02, 01:17:00,VALID,917.212,VALID,0,VALID,99.7002,VALID,-0.0169808,VALID,19.1253,VALID,131,VALID,0.572002,
2002-11-02, 01:18:00,VALID,917.227,VALID,0,VALID,99.7052,VALID,-0.0509425,VALID,19.129,VALID,112,VALID,0.767887,
2002-11-02, 01:19:00,VALID,917.244,VALID,0,VALID,99.7091,VALID,-0.0169808,VALID,19.1119,VALID,122,VALID,0.878125,
2002-11-02, 01:20:00,VALID,917.233,VALID,0,VALID,99.7129,VALID,0.0679233,VALID,19.1174,VALID,160,VALID,0.593349,
2002-11-02, 01:21:00,VALID,917.213,VALID,0,VALID,99.7116,VALID,0.0849042,VALID,19.1139,VALID,143,VALID,0.920928,
2002-11-02, 01:22:00,VALID,917.191,VALID,0,VALID,99.7167,VALID,0.101885,VALID,19.1236,VALID,133,VALID,0.596571,
2002-11-02, 01:23:00,VALID,917.149,VALID,0,VALID,99.7243,VALID,0.0849042,VALID,19.1459,VALID,146,VALID,0.0277549,
2002-11-02, 01:24:00,VALID,917.117,VALID,0,VALID,99.7243,VALID,0.0339617,VALID,19.1658,VALID,146,VALID,0,
2002-11-02, 01:25:00,VALID,917.095,VALID,0,VALID,99.723,VALID,0.101885,VALID,19.1757,VALID,146,VALID,0.000585938,
2002-11-02, 01:26:00,VALID,917.075,VALID,0,VALID,99.718,VALID,0.0169808,VALID,19.2053,VALID,146,VALID,0,
2002-11-02, 01:27:00,VALID,917.057,VALID,0,VALID,99.7116,VALID,0.0679233,VALID,19.2075,VALID,146,VALID,0,
2002-11-02, 01:28:00,VALID,917.078,VALID,0,VALID,99.7116,VALID,0.0849042,VALID,19.2205,VALID,146,VALID,0.125919,
2002-11-02, 01:29:00,VALID,917.098,VALID,0,VALID,99.7091,VALID,0.0679233,VALID,19.2209,VALID,169,VALID,0.291071,
2002-11-02, 01:30:00,VALID,917.116,VALID,0,VALID,99.7103,VALID,0.0679233,VALID,19.2145,VALID,168,VALID,0.349559,
2002-11-02, 01:31:00,VALID,917.129,VALID,0,VALID,99.7192,VALID,0.101885,VALID,19.208,VALID,169,VALID,0.244299,
2002-11-02, 01:32:00,VALID,917.141,VALID,0,VALID,99.7192,VALID,0.0679233,VALID,19.2142,VALID,160,VALID,0.44778,
2002-11-02, 01:33:00,VALID,917.15,VALID,0,VALID,99.7129,VALID,0.0679233,VALID,19.1981,VALID,156,VALID,0.722973,
2002-11-02, 01:34:00,VALID,917.157,VALID,0,VALID,99.7154,VALID,0.0169808,VALID,19.1988,VALID,166,VALID,0.777043,
2002-11-02, 01:35:00,VALID,917.167,VALID,0,VALID,99.7116,VALID,-0.0169808,VALID,19.203,VALID,154,VALID,0.734375,
2002-11-02, 01:36:00,VALID,917.192,VALID,0,VALID,99.6963,VALID,-0.0169808,VALID,19.203,VALID,156,VALID,0.881293,
2002-11-02, 01:37:00,VALID,917.195,VALID,0,VALID,99.7014,VALID,-0.0339617,VALID,19.2028,VALID,167,VALID,0.966694,
2002-11-02, 01:38:00,VALID,917.184,VALID,0,VALID,99.7002,VALID,-0.0339617,VALID,19.1963,VALID,147,VALID,0.833934,
2002-11-02, 01:39:00,VALID,917.185,VALID,0.2,VALID,99.6963,VALID,-0.0509425,VALID,19.2159,VALID,157,VALID,0.898047,
2002-11-02, 01:40:00,VALID,917.18,VALID,0,VALID,99.7002,VALID,-0.0509425,VALID,19.2125,VALID,152,VALID,1.02701,
2002-11-02, 01:41:00,VALID,917.191,VALID,0,VALID,99.7014,VALID,-0.0849042,VALID,19.2224,VALID,149,VALID,1.24979,
2002-11-02, 01:42:00,VALID,917.177,VALID,0,VALID,99.7052,VALID,-0.0849042,VALID,19.2261,VALID,146,VALID,0.899357,
2002-11-02, 01:43:00,VALID,917.181,VALID,0,VALID,99.6976,VALID,-0.0679233,VALID,19.2383,VALID,124,VALID,0.871652,
2002-11-02, 01:44:00,VALID,917.179,VALID,0,VALID,99.7052,VALID,-0.0679233,VALID,19.2448,VALID,114,VALID,1.23057,
2002-11-02, 01:45:00,VALID,917.194,VALID,0,VALID,99.7014,VALID,-0.101885,VALID,19.2323,VALID,124,VALID,1.39253,
2002-11-02, 01:46:00,VALID,917.183,VALID,0,VALID,99.7065,VALID,-0.0679233,VALID,19.2356,VALID,111,VALID,1.17414,
2002-11-02, 01:47:00,VALID,917.185,VALID,0,VALID,99.6976,VALID,-0.0679233,VALID,19.2348,VALID,99,VALID,1.32187,
2002-11-02, 01:48:00,VALID,917.185,VALID,0,VALID,99.7014,VALID,-0.0509425,VALID,19.2478,VALID,79,VALID,0.710537,
2002-11-02, 01:49:00,VALID,917.185,VALID,0,VALID,99.6976,VALID,0.0169808,VALID,19.2743,VALID,101,VALID,0.875,
2002-11-02, 01:50:00,VALID,917.18,VALID,0,VALID,99.7103,VALID,0.0679233,VALID,19.2627,VALID,121,VALID,0.730903,
2002-11-02, 01:51:00,VALID,917.185,VALID,0,VALID,99.7141,VALID,0.101885,VALID,19.2659,VALID,87,VALID,1.01069,
2002-11-02, 01:52:00,VALID,917.179,VALID,0,VALID,99.7014,VALID,0.0679233,VALID,19.2786,VALID,99,VALID,0.86258,
2002-11-02, 01:53:00,VALID,917.191,VALID,0,VALID,99.7052,VALID,0.0509425,VALID,19.2724,VALID,103,VALID,1.13535,
2002-11-02, 01:54:00,VALID,917.156,VALID,0,VALID,99.6963,VALID,0.0679233,VALID,19.2694,VALID,123,VALID,0.845089,
2002-11-02, 01:55:00,VALID,917.123,VALID,0,VALID,99.7014,VALID,0.0509425,VALID,19.2724,VALID,109,VALID,1.13007,
2002-11-02, 01:56:00,VALID,917.088,VALID,0,VALID,99.6951,VALID,0.0509425,VALID,19.2823,VALID,114,VALID,0.88511,
2002-11-02, 01:57:00,VALID,917.069,VALID,0,VALID,99.6951,VALID,0.0679233,VALID,19.2982,VALID,109,VALID,0.652009,
2002-11-02, 01:58:00,VALID,917.044,VALID,0,VALID,99.6849,VALID,0.0509425,VALID,19.3081,VALID,121,VALID,0.851763,
2002-11-02, 01:59:00,VALID,917.031,VALID,0,VALID,99.6862,VALID,0.0169808,VALID,19.2883,VALID,104,VALID,0.814611,
2002-11-02, 02:00:00,VALID,917.031,VALID,0,VALID,99.6735,VALID,0.0679233,VALID,19.298,VALID,90,VALID,0.863281,
2002-11-02, 02:01:00,VALID,917.009,VALID,0.2,VALID,99.6722,VALID,0.0849042,VALID,19.298,VALID,74,VALID,0.824554,
2002-11-02, 02:02:00,VALID,916.981,VALID,0,VALID,99.6582,VALID,0.0169808,VALID,19.2913,VALID,66,VALID,0.843149,
2002-11-02, 02:03:00,VALID,916.938,VALID,0,VALID,99.6582,VALID,0.0679233,VALID,19.3014,VALID,76,VALID,0.366241,
2002-11-02, 02:04:00,VALID,916.915,VALID,0,VALID,99.6595,VALID,0.0509425,VALID,19.3079,VALID,78,VALID,0.909939,
2002-11-02, 02:05:00,VALID,916.9,VALID,0,VALID,99.6531,VALID,0.0339617,VALID,19.292,VALID,100,VALID,0.878084,
2002-11-02, 02:06:00,VALID,916.895,VALID,0,VALID,99.6404,VALID,0.0509425,VALID,19.2957,VALID,114,VALID,0.844952,
2002-11-02, 02:07:00,VALID,916.853,VALID,0,VALID,99.6468,VALID,0.0339617,VALID,19.2918,VALID,117,VALID,0.580469,
2002-11-02, 02:08:00,VALID,916.806,VALID,0,VALID,99.6366,VALID,0.0509425,VALID,19.3012,VALID,120,VALID,0.836607,
2002-11-02, 02:09:00,VALID,916.759,VALID,0,VALID,99.6264,VALID,0,VALID,19.3153,VALID,117,VALID,1.16258,
2002-11-02, 02:10:00,VALID,916.744,VALID,0,VALID,99.6277,VALID,0.0169808,VALID,19.3012,VALID,147,VALID,1.05469,
2002-11-02, 02:11:00,VALID,916.716,VALID,0,VALID,99.6099,VALID,0,VALID,19.3146,VALID,117,VALID,0.961161,
2002-11-02, 02:12:00,VALID,916.707,VALID,0,VALID,99.6022,VALID,0.0169808,VALID,19.3347,VALID,121,VALID,1.23878,
2002-11-02, 02:13:00,VALID,916.716,VALID,0,VALID,99.5908,VALID,0,VALID,19.3208,VALID,114,VALID,0.939823,
2002-11-02, 02:14:00,VALID,916.707,VALID,0,VALID,99.5692,VALID,0,VALID,19.3442,VALID,90,VALID,0.924548,
2002-11-02, 02:15:00,VALID,916.725,VALID,0,VALID,99.5628,VALID,0.0169808,VALID,19.3467,VALID,99,VALID,0.88192,
2002-11-02, 02:16:00,VALID,916.72,VALID,0,VALID,99.5527,VALID,0.0339617,VALID,19.3402,VALID,116,VALID,0.740385,
2002-11-02, 02:17:00,VALID,916.714,VALID,0,VALID,99.5336,VALID,0.0339617,VALID,19.3472,VALID,117,VALID,1.28149,
2002-11-02, 02:18:00,VALID,916.689,VALID,0,VALID,99.5323,VALID,0.0169808,VALID,19.3407,VALID,143,VALID,0.792969,
2002-11-02, 02:19:00,VALID,916.667,VALID,0,VALID,99.5298,VALID,0.0169808,VALID,19.3434,VALID,140,VALID,0.861225,
2002-11-02, 02:20:00,VALID,916.655,VALID,0,VALID,99.5247,VALID,0,VALID,19.3467,VALID,120,VALID,1.03886,
2002-11-02, 02:21:00,VALID,916.647,VALID,0,VALID,99.512,VALID,0,VALID,19.3467,VALID,132,VALID,1.2457,
2002-11-02, 02:22:00,VALID,916.635,VALID,0,VALID,99.5031,VALID,0,VALID,19.3564,VALID,143,VALID,0.925223,
2002-11-02, 02:23:00,VALID,916.642,VALID,0,VALID,99.4967,VALID,0.0169808,VALID,19.3668,VALID,135,VALID,0.986275,
2002-11-02, 02:24:00,VALID,916.638,VALID,0,VALID,99.484,VALID,0.0169808,VALID,19.3596,VALID,133,VALID,0.964154,
2002-11-02, 02:25:00,VALID,916.626,VALID,0,VALID,99.4776,VALID,0.0339617,VALID,19.3596,VALID,140,VALID,0.946205,
2002-11-02, 02:26:00,VALID,916.62,VALID,0,VALID,99.4725,VALID,0.0339617,VALID,19.3658,VALID,137,VALID,0.877003,
2002-11-02, 02:27:00,VALID,916.615,VALID,0,VALID,99.4662,VALID,0.0339617,VALID,19.379,VALID,147,VALID,1.14147,
2002-11-02, 02:28:00,VALID,916.601,VALID,0,VALID,99.4484,VALID,0.0169808,VALID,19.3755,VALID,133,VALID,1.26501,
2002-11-02, 02:29:00,VALID,916.605,VALID,0,VALID,99.4458,VALID,0.0169808,VALID,19.3954,VALID,135,VALID,0.898884,
2002-11-02, 02:30:00,VALID,916.608,VALID,0,VALID,99.4357,VALID,0,VALID,19.408,VALID,127,VALID,0.942508,
2002-11-02, 02:31:00,VALID,916.608,VALID,0,VALID,99.4204,VALID,0.0169808,VALID,19.4046,VALID,141,VALID,1.06818,
2002-11-02, 02:32:00,VALID,916.607,VALID,0,VALID,99.4102,VALID,0.0509425,VALID,19.415,VALID,147,VALID,0.673611,
2002-11-02, 02:33:00,VALID,916.6,VALID,0,VALID,99.4115,VALID,0,VALID,19.408,VALID,141,VALID,1.12274,
2002-11-02, 02:34:00,VALID,916.59,VALID,0,VALID,99.3912,VALID,0.0679233,VALID,19.3983,VALID,139,VALID,1.0002,
2002-11-02, 02:35:00,VALID,916.566,VALID,0,VALID,99.3899,VALID,0.0509425,VALID,19.4177,VALID,110,VALID,0.617188,
2002-11-02, 02:36:00,VALID,916.563,VALID,0,VALID,99.381,VALID,0.0509425,VALID,19.4078,VALID,141,VALID,0.956473,
2002-11-02, 02:37:00,VALID,916.56,VALID,0,VALID,99.3581,VALID,0.0339617,VALID,19.411,VALID,123,VALID,1.06524,
2002-11-02, 02:38:00,VALID,916.564,VALID,0,VALID,99.3479,VALID,0.0339617,VALID,19.4115,VALID,120,VALID,1.31089,
2002-11-02, 02:39:00,VALID,916.558,VALID,0,VALID,99.3314,VALID,0.0169808,VALID,19.4209,VALID,132,VALID,1.44397,
2002-11-02, 02:40:00,VALID,916.532,VALID,0,VALID,99.3123,VALID,0.0509425,VALID,19.4247,VALID,148,VALID,0.758213,
2002-11-02, 02:41:00,VALID,916.499,VALID,0,VALID,99.3021,VALID,0.0169808,VALID,19.4371,VALID,126,VALID,0.722551,
2002-11-02, 02:42:00,VALID,916.495,VALID,0,VALID,99.2869,VALID,0.0339617,VALID,19.444,VALID,143,VALID,0.928248,
2002-11-02, 02:43:00,VALID,916.495,VALID,0,VALID,99.2653,VALID,0,VALID,19.4309,VALID,120,VALID,1.23438,
2002-11-02, 02:44:00,VALID,916.494,VALID,0,VALID,99.2564,VALID,0.0339617,VALID,19.4175,VALID,110,VALID,0.391226,
2002-11-02, 02:45:00,VALID,916.511,VALID,0,VALID,99.2551,VALID,0,VALID,19.4209,VALID,117,VALID,0.738636,
2002-11-02, 02:46:00,VALID,916.491,VALID,0,VALID,99.2576,VALID,0,VALID,19.4209,VALID,93,VALID,0.300347,
2002-11-02, 02:47:00,VALID,916.455,VALID,0,VALID,99.2564,VALID,0.0169808,VALID,19.4147,VALID,125,VALID,0.95847,
2002-11-02, 02:48:00,VALID,916.434,VALID,0,VALID,99.25,VALID,0,VALID,19.4021,VALID,128,VALID,0.895633,
2002-11-02, 02:49:00,VALID,916.397,VALID,0,VALID,99.2602,VALID,0.0509425,VALID,19.4053,VALID,80,VALID,0.918555,
2002-11-02, 02:50:00,VALID,916.368,VALID,0,VALID,99.2564,VALID,0.0339617,VALID,19.3887,VALID,78,VALID,0.889286,
2002-11-02, 02:51:00,VALID,916.369,VALID,0,VALID,99.2602,VALID,0.0679233,VALID,19.3824,VALID,88,VALID,1.01689,
2002-11-02, 02:52:00,VALID,916.362,VALID,0,VALID,99.2411,VALID,0,VALID,19.3725,VALID,76,VALID,1.17601,
2002-11-02, 02:53:00,VALID,916.337,VALID,0,VALID,99.2284,VALID,0,VALID,19.3531,VALID,91,VALID,1.06027,
2002-11-02, 02:54:00,VALID,916.307,VALID,0,VALID,99.222,VALID,0.0169808,VALID,19.3598,VALID,84,VALID,0.866386,
2002-11-02, 02:55:00,VALID,916.286,VALID,0,VALID,99.2246,VALID,0.0169808,VALID,19.3531,VALID,110,VALID,0.834671,
2002-11-02, 02:56:00,VALID,916.285,VALID,0,VALID,99.2169,VALID,0.0339617,VALID,19.3534,VALID,115,VALID,1.08491,
2002-11-02, 02:57:00,VALID,916.269,VALID,0,VALID,99.2017,VALID,0.0339617,VALID,19.3437,VALID,128,VALID,1.04866,
2002-11-02, 02:58:00,VALID,916.27,VALID,0,VALID,99.1915,VALID,0.0509425,VALID,19.3434,VALID,115,VALID,1.36498,
2002-11-02, 02:59:00,VALID,916.295,VALID,0,VALID,99.1813,VALID,0.0169808,VALID,19.3335,VALID,102,VALID,0.82268,
2002-11-02, 03:00:00,VALID,916.331,VALID,0,VALID,99.1661,VALID,0.0679233,VALID,19.3367,VALID,102,VALID,0.840712,
2002-11-02, 03:01:00,VALID,916.36,VALID,0,VALID,99.1623,VALID,0.0169808,VALID,19.3238,VALID,83,VALID,0.855058,
2002-11-02, 03:02:00,VALID,916.381,VALID,0,VALID,99.1635,VALID,0.0509425,VALID,19.3236,VALID,105,VALID,0.796074,
2002-11-02, 03:03:00,VALID,916.374,VALID,0,VALID,99.1572,VALID,0.0849042,VALID,19.327,VALID,119,VALID,0.800195,
2002-11-02, 03:04:00,VALID,916.344,VALID,0,VALID,99.1712,VALID,0.0509425,VALID,19.3201,VALID,140,VALID,0.427679,
2002-11-02, 03:05:00,VALID,916.322,VALID,0,VALID,99.175,VALID,0.0169808,VALID,19.3174,VALID,147,VALID,0.180743,
2002-11-02, 03:06:00,VALID,916.297,VALID,0,VALID,99.1801,VALID,0.0339617,VALID,19.3342,VALID,147,VALID,0.248851,
2002-11-02, 03:07:00,VALID,916.297,VALID,0,VALID,99.1928,VALID,0.0169808,VALID,19.3206,VALID,168,VALID,0.235268,
2002-11-02, 03:08:00,VALID,916.312,VALID,0,VALID,99.2004,VALID,0.0169808,VALID,19.3241,VALID,117,VALID,0.396234,
2002-11-02, 03:09:00,VALID,916.328,VALID,0,VALID,99.1864,VALID,0.0339617,VALID,19.2943,VALID,122,VALID,0.453758,
2002-11-02, 03:10:00,VALID,916.343,VALID,0,VALID,99.1966,VALID,0.0169808,VALID,19.298,VALID,127,VALID,0.544202,
2002-11-02, 03:11:00,VALID,916.33,VALID,0,VALID,99.2055,VALID,0.0169808,VALID,19.2788,VALID,132,VALID,0.550893,
2002-11-02, 03:12:00,VALID,916.324,VALID,0,VALID,99.2106,VALID,0.0169808,VALID,19.2659,VALID,146,VALID,0.967949,
2002-11-02, 03:13:00,VALID,916.318,VALID,0,VALID,99.2258,VALID,0,VALID,19.2664,VALID,144,VALID,1.11648,
2002-11-02, 03:14:00,VALID,916.339,VALID,0,VALID,99.2424,VALID,0.0169808,VALID,19.2627,VALID,145,VALID,1.1174,
2002-11-02, 03:15:00,VALID,916.344,VALID,0,VALID,99.2665,VALID,0,VALID,19.2629,VALID,149,VALID,0.974095,
2002-11-02, 03:16:00,VALID,916.337,VALID,0,VALID,99.2742,VALID,0,VALID,19.2461,VALID,148,VALID,1.33694,
2002-11-02, 03:17:00,VALID,916.334,VALID,0,VALID,99.2882,VALID,0,VALID,19.2662,VALID,140,VALID,0.680078,
2002-11-02, 03:18:00,VALID,916.344,VALID,0,VALID,99.2932,VALID,0,VALID,19.2597,VALID,148,VALID,1.32143,
2002-11-02, 03:19:00,VALID,916.318,VALID,0,VALID,99.3034,VALID,0,VALID,19.2729,VALID,167,VALID,0.879645,
2002-11-02, 03:20:00,VALID,916.305,VALID,0,VALID,99.2971,VALID,0,VALID,19.2763,VALID,152,VALID,0.65648,
2002-11-02, 03:21:00,VALID,916.303,VALID,0,VALID,99.2945,VALID,-0.0169808,VALID,19.2694,VALID,148,VALID,1.58683,
2002-11-02, 03:22:00,VALID,916.301,VALID,0,VALID,99.2907,VALID,0,VALID,19.2627,VALID,142,VALID,1.19872,
2002-11-02, 03:23:00,VALID,916.293,VALID,0,VALID,99.2869,VALID,0,VALID,19.2793,VALID,140,VALID,1.16617,
2002-11-02, 03:24:00,VALID,916.295,VALID,0,VALID,99.2818,VALID,-0.0169808,VALID,19.2893,VALID,129,VALID,0.644326,
2002-11-02, 03:25:00,VALID,916.27,VALID,0,VALID,99.2691,VALID,0,VALID,19.2823,VALID,153,VALID,1.29062,
2002-11-02, 03:26:00,VALID,916.251,VALID,0,VALID,99.2538,VALID,0,VALID,19.2821,VALID,171,VALID,1.04647,
2002-11-02, 03:27:00,VALID,916.237,VALID,0,VALID,99.2551,VALID,0,VALID,19.2989,VALID,164,VALID,0.842093,
2002-11-02, 03:28:00,VALID,916.239,VALID,0,VALID,99.2513,VALID,0,VALID,19.2823,VALID,167,VALID,0.646701,
2002-11-02, 03:29:00,VALID,916.239,VALID,0,VALID,99.2475,VALID,0.0169808,VALID,19.2786,VALID,132,VALID,0.368215,
2002-11-02, 03:30:00,VALID,916.266,VALID,0,VALID,99.2322,VALID,0,VALID,19.2766,VALID,79,VALID,1.07452,
2002-11-02, 03:31:00,VALID,916.276,VALID,0,VALID,99.2322,VALID,0,VALID,19.2604,VALID,88,VALID,1.20566,